Regional Weather Roundup
Issued by NWS

Home | Current Version | Previous Version | Graphics & Text | Print | Product List | Glossary On
Versions: 1 2 3 4 5 6 7 8 9 10 11 12 13 14 15 16 17 18 19 20 21 22 23 24 25 26 27 28 29 30 31 32 33 34 35 36 37 38 39 40 41 42 43 44 45 46 47 48 49 50
000
ASUS43 KMPX 270610
RWRMN
WEATHER ROUNDUP FOR MINNESOTA
NATIONAL WEATHER SERVICE TWIN CITIES/CHANHASSEN MN
100 AM CDT FRI MAR 27 2015


NOTE: "FAIR" INDICATES FEW OR NO CLOUDS BELOW 12,000 FEET WITH NO
SIGNIFICANT WEATHER AND/OR OBSTRUCTIONS TO VISIBILITY. N/A MEANS
CURRENT SKY AND/OR WEATHER CONDITIONS ARE NOT AVAILABLE.

MNZ060>063-068>070-270700-
   Twin Cities Metro

CITY           SKY/WX    TMP DP  RH WIND       PRES   REMARKS
TWIN CITIES    CLEAR     25   6  44 N8        30.23R WCI  16
6HR MIN TEMP:  25; 6HR MAX TEMP:  33;

ST PAUL        CLEAR     24   7  48 N6        30.24R WCI  17
CRYSTAL        FAIR      24   9  52 N5        30.22R WCI  18
BLAINE         CLEAR     25   7  46 N5        30.22S WCI  19
LAKEVILLE      CLEAR     21   9  58 N5        30.21S WCI  15
EDEN PRAIRIE   CLEAR     24   9  52 N7        30.21R WCI  16
6HR MIN TEMP:  24; 6HR MAX TEMP:  33;

SOUTH ST PAUL  CLEAR     26   6  41 N6        30.22S WCI  20
LAKE ELMO      FAIR      25   7  46 N5        30.23R WCI  19
$$
MNZ001>005-007-008-013>017-022>024-027-028-270700-
   Northwest Minnesota

CITY           SKY/WX    TMP DP  RH WIND       PRES   REMARKS
BEMIDJI        CLEAR      8   2  76 W5        30.25S WCI  -1
HALLOCK        CLEAR     16   7  67 E3        30.31S
ROSEAU         CLEAR     18  10  73 CALM      30.29S
WARROAD        CLEAR     16   9  73 NW3       30.29S
THIEF RVR FALL CLEAR     18   9  68 N5        30.29S WCI  11
CROOKSTON      CLEAR     19  10  68 NE5       30.31F WCI  13
FOSSTON        CLEAR     14  10  85 CALM      30.28S
DETROIT LAKES  CLEAR     19  14  79 N5        30.27S WCI  13
MOORHEAD       CLEAR     14  10  85 CALM      30.31S
PARK RAPIDS    CLEAR     15   1  53 N5        30.24R WCI   8
MAHNOMEN       FAIR      17  11  77 N5        30.27S WCI  10
$$
MNZ006-009>011-018-025>026-270700-
   North Central Minnesota

CITY           SKY/WX    TMP DP  RH WIND       PRES   REMARKS
BAUDETTE       CLEAR     14   6  70 NW3       30.27R
FLAG ISLAND    CLEAR     14   7  73 CALM      30.27F
INTL FALLS     CLEAR     11   6  81 CALM      30.25F
6HR MIN TEMP:  10; 6HR MAX TEMP:  24;

WASKISH        CLEAR     12   7  79 CALM      30.27S
BIG FORK       CLEAR     12   3  67 CALM      30.25S
LONGVILLE      CLEAR     16   3  57 CALM      30.25R
GRAND RAPIDS   CLEAR     16   0  48 N3        30.23R
ORR            FAIR       9   0  66 CALM      30.22R
COOK           CLEAR     10   1  67 CALM      30.23F
WALKER         FAIR      15  -1  47 CALM      30.25R
$$
MNZ012-019>021-037-270700-
   Northeast Minnesota

CITY           SKY/WX    TMP DP  RH WIND       PRES   REMARKS
DULUTH         CLEAR     17   1  49 NE8       30.21R WCI   7
6HR MIN TEMP:  17; 6HR MAX TEMP:  27;

ELY            CLEAR     10   1  67 CALM      30.22S
HIBBING        CLEAR     12   0  58 NE3       30.23R
EVELETH        CLEAR     16   1  53 CALM      30.23S
DULUTH HARBOR  CLEAR     23   7  50 N18G24    30.28R WCI   9
TWO HARBORS    CLEAR     18   5  57 CALM      30.22S
SILVER BAY     CLEAR     16   3  57 NW5       30.21F WCI   9
GRAND MARAIS     N/A     15   5  64 VRB3      30.26R
G MARAIS ARPRT PTCLDY     9   0  66 NW8       30.15R WCI  -4
$$
MNZ029>031-032-039>041-046>048-054>057-064-270700-
   West Central Minnesota

CITY           SKY/WX    TMP DP  RH WIND       PRES   REMARKS
FERGUS FALLS   CLEAR     18   9  68 CALM      30.31S
WHEATON        CLEAR     18  10  73 N6        30.32S WCI   9
MORRIS         CLEAR     19  14  79 NW7       30.27S WCI  10
ALEXANDRIA     CLEAR     19  11  70 N3        30.25R
ELBOW LAKE     FAIR      17  11  78 NW6       30.27S WCI   8
WADENA         CLEAR     16   9  73 N3        30.25S
GLENWOOD       CLEAR     19  12  73 NW3       30.26R
APPLETON       CLEAR     21  16  79 NW6       30.28S WCI  14
BENSON         CLEAR     18  12  79 N5        30.27S WCI  11
ORTONVILLE     CLEAR     21  12  68 N8        30.28S WCI  12
MADISON        CLEAR     23  16  74 NW9       30.29R WCI  13
WILLMAR        FAIR      19  10  68 N7        30.27R WCI  10
$$
MNZ033>034-036-042>043-049>051-058-059-270700-
   Central Minnesota

CITY           SKY/WX    TMP DP  RH WIND       PRES   REMARKS
ST CLOUD       CLEAR     21   7  54 N6        30.24R WCI  13
6HR MIN TEMP:  21; 6HR MAX TEMP:  32;

SAUK CENTRE    FAIR      19   5  54 N6        30.25R WCI  11
PAYNESVILLE    CLEAR     17   5  59 CALM      30.24S
AITKIN         CLEAR     19   1  45 N3        30.23S
PINE RIVER     CLEAR     16   3  57 CALM      30.28R
BRAINERD       CLEAR     19   2  47 N6        30.25R WCI  11
STAPLES        CLEAR     16   1  53 N5        30.25S WCI   9
LONG PRAIRIE   FAIR      19   5  53 NW3       30.25R
LITTLE FALLS   CLEAR     21  -2  35 CALM      30.25R
LITCHFIELD     CLEAR     21   7  53 N5        30.24S WCI  15
BUFFALO        CLEAR     23   9  54 N7        30.24R WCI  15
MAPLE LAKE     CLEAR     24  11  58 N7        30.24S WCI  15
$$
MNZ037-044-045-052-053-270700-
   East Central Minnesota

CITY           SKY/WX    TMP DP  RH WIND       PRES   REMARKS
PRINCETON      CLEAR     23  10  58 N5        30.23S WCI  17
MORA           CLEAR     21   1  42 CALM      30.26R
CAMBRIDGE      CLEAR     25   9  50 N6        30.22R WCI  18
RUSH CITY      CLEAR     20   6  56 N3        30.24R
MOOSE LAKE     CLEAR     19   1  45 CALM      30.22R
HINCKLEY       FAIR      23   1  39 N7        30.23S WCI  15
CLOQUET        CLEAR     16   0  48 N3        30.22S
MCGREGOR       CLEAR     19   5  53 N5        30.24S WCI  13
$$
MNZ071>073-080-081-089-090-097-098-270700-
   Southwest Minnesota

CITY           SKY/WX    TMP DP  RH WIND       PRES   REMARKS
MONTEVIDEO     CLEAR     21  16  79 N8        30.28S WCI  12
GRANITE FALLS  CLEAR     23  15  72 NW9       30.28S WCI  13
CANBY          CLEAR     20  15  81 NW7       30.29S WCI  11
MARSHALL       CLEAR     21  10  63 NW9       30.26S WCI  11
REDWOOD FALLS  CLEAR     24  14  65 N7        30.25R WCI  16
OLIVIA         CLEAR     21  14  73 N8        30.25R WCI  12
PIPESTONE      CLEAR     21  14  73 N5        30.23S WCI  15
WINDOM         CLEAR     21  16  79 NW12      30.22S WCI   9
WORTHINGTON    CLEAR     19  12  73 N9        30.23S WCI   9
JACKSON        CLEAR     23  18  80 NW9       30.21S WCI  13
TRACY          CLEAR     23  16  75 NW8       30.25R WCI  13
SLAYTON        CLEAR     21  13  70 N9        30.24R WCI  11
$$
MNZ065>067-074>077-082>085-091>093-270700-
   South Central Minnesota

CITY           SKY/WX    TMP DP  RH WIND       PRES   REMARKS
MANKATO        CLEAR     21  12  68 N8        30.21S WCI  12
NEW ULM        CLEAR     23  14  68 N8        30.23R WCI  14
ST JAMES       CLEAR     25  19  80 NW9       30.24R WCI  15
FAIRMONT       CLEAR     25  12  58 NW10      30.20R WCI  15
GLENCOE        CLEAR     22  12  65 NW5       30.23R WCI  16
FARIBAULT      CLEAR     18  12  79 CALM      30.21R
OWATONNA       CLEAR     19  14  79 CALM      30.19S
WASECA         CLEAR     19  14  79 N8        30.21S WCI   9
ALBERT LEA     CLEAR     25  18  74 NW6       30.18S WCI  18
$$
MNZ078>079-086>088-094>096-270700-
   Southeast Minnesota

CITY           SKY/WX    TMP DP  RH WIND       PRES   REMARKS
ROCHESTER      CLEAR     21  10  62 N9        30.17R WCI  11
6HR MIN TEMP:  21; 6HR MAX TEMP:  30;

RED WING       CLEAR     25   5  42 NE3       30.21R
STANTON        CLEAR     22   9  56 N6        30.20R WCI  15
DODGE CENTER   CLEAR     21  10  63 N5        30.17S WCI  15
WINONA         CLEAR     30  12  47 NE6       30.20R WCI  24
AUSTIN         CLEAR     21  16  79 NW7       30.17S WCI  13
PRESTON        CLEAR     22  10  61 N7        30.16R WCI  13
$$
ABBREVIATIONS USED IN REMARKS
   TC - TEMPERATURES IN CELSIUS
  WCI - WIND CHILL INDEX
   HX - HEAT INDEX
  VSB - VISIBILITY
$$


USA.gov is the U.S. government's official web portal to all federal, state and local government web resources and services.